Weather reports worldwide

Advertisment
Mannheim, Germany (10729): temperature & dewpoint: 07.12.2018 10:00:00 - 13.12.2018 10:00:00 (CET)Mannheim, Germany (10729): temperature 5cm & temperature -5cm: 07.12.2018 10:00:00 - 13.12.2018 10:00:00 (CET)Mannheim, Germany (10729): temperature -20cm & temperature -100cm: 07.12.2018 10:00:00 - 13.12.2018 10:00:00 (CET)Mannheim, Germany (10729): wind speed & gusts: 07.12.2018 10:00:00 - 13.12.2018 10:00:00 (CET)Mannheim, Germany (10729): wind direction: 07.12.2018 10:00:00 - 13.12.2018 10:00:00 (CET)Mannheim, Germany (10729): reduced air pressure: 07.12.2018 10:00:00 - 13.12.2018 10:00:00 (CET)Mannheim, Germany (10729): visibility: 07.12.2018 10:00:00 - 13.12.2018 10:00:00 (CET)Mannheim, Germany (10729): sunshine duration: 07.12.2018 10:00:00 - 13.12.2018 10:00:00 (CET)Mannheim, Germany (10729): precipitation: 07.12.2018 10:00:00 - 13.12.2018 10:00:00 (CET)
Date & Time tt [°C] td [°C] tt 5cm [°C] tt -5cm [°C] tt -20cm [°C] tt -100cm [°C] ff [km/h] ff [kn] fx [km/h] fx [kn] dd ppp [hPa] vv [km] sd [min] rr [mm]
13.12.2018 10:00:00 0,9 -4,0 0,0 1,0 4,2 9,2 15 8 32 17 NE 1019,6 19 40 0,0
13.12.2018 09:00:00 0,6 -4,3 -1,1 1,0 4,3 9,2 15 8 26 14 ENE 1019,7 19 16 0,0
13.12.2018 08:00:00 -0,1 -3,7 -2,6 1,1 4,3 9,2 8 4 16 8 ENE 1019,8 20 0 0,0
13.12.2018 07:00:00 0,1 -3,5 -2,5 1,2 4,4 9,2 8 4 12 7 N 1019,9 22 0 0,0
13.12.2018 06:00:00 0,1 -3,2 -3,5 1,3 4,5 9,2 7 4 12 6 N 1020,2 22 0 0,0
13.12.2018 05:00:00 -0,4 -3,4 -3,6 1,4 4,6 9,3 7 4 11 6 N 1020,7 22 0 0,0
13.12.2018 04:00:00 -0,5 -3,6 -1,8 1,5 4,7 9,3 8 5 15 8 NNE 1021,2 28 0 0,0
13.12.2018 03:00:00 0,1 -3,5 -1,7 1,6 4,8 9,3 10 5 13 7 NNE 1021,7 34 0 0,0
13.12.2018 02:00:00 0,2 -3,3 -1,7 1,7 4,9 9,3 9 5 14 7 N 1021,9 37 0 0,0
13.12.2018 01:00:00 1,1 -2,9 -1,7 1,8 5,0 9,3 8 4 13 7 N 1022,2 38 0 0,0
13.12.2018 00:00:00 1,6 -2,5 -0,8 1,9 5,1 9,3 8 5 16 9 N 1022,6 33 0 0,0
12.12.2018 23:00:00 1,5 -2,0 -0,1 1,9 5,2 9,3 10 6 21 11 NNE 1022,7 37 0 0,0
12.12.2018 22:00:00 2,2 -1,4 0,4 2,4 5,3 9,3 11 6 19 11 NE 1022,9 44 0 0,0
12.12.2018 21:00:00 2,6 -0,7 1,3 2,9 5,4 9,3 11 6 21 11 NE 1022,9 33 0 0,0
12.12.2018 20:00:00 3,0 0,3 1,1 3,6 5,5 9,3 6 4 11 6 NNE 1023,2 29 0 0,0
12.12.2018 19:00:00 3,8 0,6 3,4 3,8 5,5 9,3 11 6 22 12 NE 1023,3 32 0 0,0
12.12.2018 18:00:00 3,5 0,5 2,3 3,9 5,5 9,3 3 2 9 5 N 1023,3 25 0 0,0
12.12.2018 17:00:00 3,5 0,2 2,7 4,2 5,5 9,4 7 4 10 5 N 1023,4 28 0 0,0
12.12.2018 16:00:00 4,1 0,3 2,5 5,0 5,4 9,4 8 4 16 9 N 1023,4 26 15 0,0
12.12.2018 15:00:00 4,8 1,2 4,5 5,6 5,3 9,4 9 5 18 10 N 1023,6 19 0 0,0
12.12.2018 14:00:00 4,8 1,5 5,4 5,6 5,2 9,4 8 5 15 8 NNE 1023,8 16 0 0,0
12.12.2018 13:00:00 4,4 1,4 5,4 5,3 5,0 9,4 11 6 16 8 N 1024,3 16 0 0,0
12.12.2018 12:00:00 4,1 1,4 5,5 4,4 5,0 9,4 9 5 13 7 N 1024,9 12 30 0,0
12.12.2018 11:00:00 3,0 0,9 3,9 3,1 5,0 9,4 6 4 10 6 N 1025,3 8 37 0,0
12.12.2018 10:00:00 1,6 0,6 1,2 2,0 5,1 9,4 5 3 6 4 NE 1025,3 4,6 23 0,0
12.12.2018 09:00:00 1,0 0,5 -1,8 2,2 5,2 9,4 4 2 9 5 E 1025,3 4,4 0 0,0
12.12.2018 08:00:00 1,2 0,5 -0,6 2,7 5,2 9,4 2 1 5 3 S 1025,0 4,8 0 0,0
12.12.2018 07:00:00 1,5 0,9 0,8 2,9 5,3 9,4 5 3 11 6 S 1024,9 5 0 0,0
12.12.2018 06:00:00 1,5 0,7 1,2 2,9 5,3 9,4 5 3 8 4 SSE 1024,6 5 0 0,0
12.12.2018 05:00:00 1,6 0,9 1,3 3,0 5,4 9,4 6 3 9 5 S 1024,5 6 0 0,0
12.12.2018 04:00:00 1,4 0,6 1,1 3,0 5,4 9,4 5 3 10 5 SSE 1024,6 5 0 0,0
12.12.2018 03:00:00 1,5 0,6 1,2 3,1 5,5 9,4 7 4 11 6 S 1024,6 7 0 0,0
12.12.2018 02:00:00 1,5 0,6 1,3 3,2 5,5 9,5 7 4 11 6 SSE 1024,7 7 0 0,0
12.12.2018 01:00:00 1,7 0,9 1,5 3,3 5,6 9,5 7 4 14 8 S 1024,8 6 0 0,0
12.12.2018 00:00:00 1,8 1,1 1,7 3,4 5,7 9,5 9 5 14 8 SSE 1024,9 6 0 0,0
11.12.2018 23:00:00 2,1 1,2 1,9 3,4 5,7 9,5 9 5 14 8 S 1024,7 7 0 0,0
11.12.2018 22:00:00 2,1 1,2 1,6 3,5 5,8 9,5 10 5 13 7 S 1024,7 8 0 0,0
11.12.2018 21:00:00 2,7 2,0 2,1 3,8 5,8 9,5 8 4 16 9 S 1024,8 10 0 0,0
11.12.2018 20:00:00 3,5 2,0 3,0 3,8 5,9 9,5 8 5 13 7 S 1024,7 18 0 0,0
11.12.2018 19:00:00 3,6 1,2 2,1 3,7 6,0 9,5 7 4 11 6 WSW 1024,6 40 0 0,0
11.12.2018 18:00:00 2,6 0,8 -0,8 4,2 6,0 9,5 3 2 19 10 NW 1024,2 46 0 0,0
11.12.2018 17:00:00 4,6 0,9 3,2 4,9 6,0 9,5 18 10 29 16 NW 1024,0 29 0 0,0
11.12.2018 16:00:00 5,8 0,4 4,8 5,3 5,9 9,5 11 6 20 11 WNW 1023,6 60 0 0,0
11.12.2018 15:00:00 5,9 0,5 5,6 5,7 5,8 9,5 12 6 25 13 NW 1023,7 58 11 0,0
11.12.2018 14:00:00 5,7 0,0 5,2 5,4 5,7 9,5 16 9 30 16 NW 1023,8 70 0 0,0
11.12.2018 13:00:00 5,7 1,3 6,0 5,1 5,7 9,5 12 7 22 12 W 1024,0 38 6 0,0
11.12.2018 12:00:00 4,9 1,0 5,2 4,7 5,6 9,5 13 7 20 11 W 1024,5 38 0 0,0
11.12.2018 11:00:00 3,7 1,0 4,5 4,0 5,6 9,5 8 5 14 8 SSW 1024,9 29 6 0,0
11.12.2018 10:00:00 3,2 0,9 3,3 3,5 5,6 9,5 9 5 16 9 SSW 1024,9 26 0 0,0
11.12.2018 09:00:00 3,7 0,9 2,9 3,1 5,7 9,5 14 7 24 13 W 1024,7 42 0 0,0
11.12.2018 08:00:00 3,4 0,2 2,6 2,9 5,8 9,5 11 6 19 10 WSW 1024,3 43 0 0,0
11.12.2018 07:00:00 3,5 0,1 2,7 2,9 5,8 9,5 9 5 22 12 WSW 1024,1 46 0 0,0
11.12.2018 06:00:00 3,8 0,2 2,5 2,9 5,9 9,5 10 6 23 13 W 1024,0 49 0 0,0
11.12.2018 05:00:00 3,5 0,0 1,8 3,1 6,0 9,5 13 7 21 12 W 1024,0 47 0 0,0
11.12.2018 04:00:00 4,3 0,1 3,0 3,5 6,0 9,5 14 8 23 12 W 1024,1 54 0 0,0
11.12.2018 03:00:00 4,1 0,0 3,3 3,3 6,1 9,5 13 7 23 12 W 1024,1 56 0 0,0
11.12.2018 02:00:00 4,3 -0,1 3,0 3,1 6,3 9,5 12 6 20 11 W 1024,0 53 0 0,0
11.12.2018 01:00:00 4,1 0,0 2,0 2,9 6,4 9,5 9 5 19 11 W 1023,7 50 0 0,0
11.12.2018 00:00:00 4,2 0,1 1,7 3,2 6,6 9,5 11 6 23 13 W 1023,8 45 0 0,0
10.12.2018 23:00:00 4,3 0,2 2,0 3,6 6,7 9,5 13 7 20 11 W 1023,8 48 0 0,0
10.12.2018 22:00:00 4,2 0,5 2,2 4,0 6,8 9,5 14 8 23 12 WNW 1023,5 61 0 0,0
10.12.2018 21:00:00 4,2 0,5 2,4 4,5 6,9 9,5 13 7 24 13 WNW 1023,6 70 0 0,0
10.12.2018 20:00:00 4,3 1,9 3,3 4,8 6,9 9,5 8 5 27 15 WNW 1023,4 68 0 0,0
10.12.2018 19:00:00 4,7 1,7 3,4 5,2 7,0 9,5 16 9 54 29 NW 1023,2 62 0 0,2
10.12.2018 18:00:00 7,1 0,3 6,0 5,3 7,1 9,6 17 9 35 19 W 1021,9 62 0 0,0
10.12.2018 17:00:00 7,0 0,1 5,4 5,5 7,1 9,6 18 10 41 22 W 1021,7 70 10 0,0
10.12.2018 16:00:00 7,7 -0,2 6,3 6,2 7,1 9,6 19 10 33 18 WNW 1021,6 70 2 0,0
10.12.2018 15:00:00 7,7 0,5 7,1 6,5 7,0 9,6 21 12 37 20 WNW 1021,7 69 13 0,0
10.12.2018 14:00:00 7,6 0,5 8,2 6,3 7,0 9,6 19 11 31 17 WNW 1022,1 54 4 0,0
10.12.2018 13:00:00 6,9 1,7 6,7 6,2 7,0 9,6 6 3 30 16 W 1022,7 45 0 0,0
10.12.2018 12:00:00 6,6 1,8 6,5 6,1 7,0 9,6 15 8 31 17 W 1023,1 46 7 0,0
10.12.2018 11:00:00 6,6 2,0 7,4 5,6 7,0 9,6 19 10 33 18 W 1023,0 49 13 0,0
10.12.2018 10:00:00 5,9 2,0 5,2 5,2 7,1 9,5 13 7 26 14 W 1022,6 31 0 0,0
10.12.2018 09:00:00 5,4 2,0 4,4 5,1 7,1 9,5 18 10 28 15 W 1022,0 41 0 0,0
10.12.2018 08:00:00 5,4 1,7 4,7 5,2 7,2 9,5 16 9 37 20 WSW 1021,5 59 0 0,0
10.12.2018 07:00:00 5,8 1,8 4,7 5,2 7,3 9,5 17 9 29 16 W 1020,8 53 0 0,0
10.12.2018 06:00:00 6,2 1,5 4,4 5,5 7,3 9,5 16 9 32 18 WNW 1020,0 48 0 0,0
10.12.2018 05:00:00 6,8 1,7 5,6 5,7 7,4 9,5 22 12 33 18 W 1019,3 66 0 0,0
10.12.2018 04:00:00 6,7 3,2 5,5 5,7 7,5 9,5 16 8 24 13 W 1018,8 66 0 0,0
10.12.2018 03:00:00 6,6 3,4 5,0 5,9 7,5 9,5 11 6 25 13 W 1018,3 69 0 0,0
10.12.2018 02:00:00 6,2 4,1 4,9 6,1 7,6 9,5 11 6 31 17 W 1017,3 47 0 0,2
10.12.2018 01:00:00 6,8 2,6 5,3 6,2 7,6 9,5 19 10 34 18 WNW 1016,7 64 0 0,0
10.12.2018 00:00:00 7,3 2,8 6,5 6,4 7,7 9,5 16 9 29 16 WNW 1016,1 70 0 0,0
09.12.2018 23:00:00 7,9 3,6 7,1 6,4 7,7 9,5 19 10 36 19 W 1014,6 41 0 0,0
09.12.2018 22:00:00 8,2 3,3 6,8 6,5 7,8 9,5 19 11 35 19 W 1013,4 70 0 0,0
09.12.2018 21:00:00 8,2 3,7 7,0 6,8 7,8 9,5 19 10 40 22 WNW 1012,4 70 0 0,0
09.12.2018 20:00:00 8,3 4,7 6,9 6,8 7,8 9,5 15 8 22 12 W 1010,9 70 0 0,0
09.12.2018 19:00:00 7,4 5,6 5,9 7,2 7,8 9,5 12 7 32 18 WNW 1009,7 70 0 0,7
09.12.2018 18:00:00 8,8 5,1 7,4 7,3 7,8 9,5 16 9 31 17 W 1007,7 70 0 0,1
09.12.2018 17:00:00 9,0 5,0 7,7 7,3 7,8 9,5 21 11 32 18 W 1006,3 58 0 0,0
09.12.2018 16:00:00 8,8 5,4 7,6 7,4 7,8 9,5 21 11 42 23 WSW 1005,3 70 0 0,2
09.12.2018 15:00:00 9,5 4,5 8,8 7,5 7,8 9,5 25 14 49 27 SW 1004,3 70 0 0,0
09.12.2018 14:00:00 9,4 4,6 8,9 7,5 7,8 9,5 29 16 57 31 WSW 1003,8 70 0 0,0
09.12.2018 13:00:00 9,5 4,7 8,8 7,5 7,7 9,5 24 13 44 24 SW 1003,6 70 0 0,0
09.12.2018 12:00:00 9,1 4,5 8,7 7,4 7,7 9,5 26 14 43 23 WSW 1004,2 70 0 0,0
09.12.2018 11:00:00 8,9 4,6 8,4 7,0 7,7 9,5 24 13 40 22 WSW 1004,4 68 0 0,0
09.12.2018 10:00:00 8,8 4,5 8,1 6,7 7,8 9,5 26 14 41 22 WSW 1004,0 65 0 0,0
09.12.2018 09:00:00 8,4 3,7 7,4 6,4 7,8 9,5 29 16 48 26 WSW 1003,5 70 0 0,0
09.12.2018 08:00:00 8,5 4,0 7,3 6,8 7,9 9,5 27 15 47 25 WSW 1002,5 70 0 0,0
09.12.2018 07:00:00 8,5 4,4 7,4 6,9 7,9 9,5 24 13 42 23 WSW 1001,9 70 0 0,0
09.12.2018 06:00:00 8,3 4,6 6,9 7,0 8,0 9,5 23 13 63 34 W 1001,2 70 0 0,0
09.12.2018 05:00:00 9,8 3,9 8,1 7,2 8,0 9,5 29 15 49 26 W 1000,5 45 0 0,0
09.12.2018 04:00:00 10,3 4,3 8,7 7,6 8,0 9,5 33 18 52 28 W 1000,3 70 0 0,0
09.12.2018 03:00:00 11,0 5,0 9,5 7,6 7,9 9,5 25 14 61 33 W 1000,0 49 0 0,0
09.12.2018 02:00:00 10,2 5,9 8,3 7,7 7,9 9,5 39 21 57 31 WSW 1000,0 39 0 0,2
09.12.2018 01:00:00 8,6 7,5 7,9 7,6 7,9 9,5 28 15 47 25 SSW 1000,9 70 0 0,2
09.12.2018 00:00:00 8,5 7,3 7,7 7,5 7,9 9,5 34 18 53 28 S 1001,6 18 0 0,5
08.12.2018 23:00:00 8,4 6,9 7,7 7,4 7,9 9,5 29 16 51 28 SSW 1003,5 65 0 0,0
08.12.2018 22:00:00 8,0 6,8 7,3 7,4 7,9 9,5 34 18 51 28 SSW 1005,2 26 0 0,0
08.12.2018 21:00:00 7,7 6,7 7,1 7,3 7,9 9,5 30 16 46 25 SSW 1006,6 25 0 0,1
08.12.2018 20:00:00 7,8 6,3 7,1 7,3 7,9 9,5 27 15 42 23 SSW 1008,0 25 0 0,1
08.12.2018 19:00:00 8,7 5,7 7,8 7,4 8,0 9,5 24 13 37 20 SSW 1009,2 47 0 0,0
08.12.2018 18:00:00 8,6 5,7 7,3 7,4 8,0 9,5 23 12 39 21 SSW 1010,0 40 0 0,0
08.12.2018 17:00:00 8,7 5,5 7,5 7,5 7,9 9,5 26 14 41 22 SSW 1010,3 45 0 0,0
08.12.2018 16:00:00 8,3 5,8 7,3 7,6 7,9 9,5 19 10 32 17 SW 1010,5 48 0 0,0
08.12.2018 15:00:00 7,6 6,2 7,2 7,6 7,9 9,5 21 11 33 18 SW 1010,6 32 0 0,3
08.12.2018 14:00:00 7,7 6,2 7,5 7,6 7,9 9,4 19 10 36 19 SSW 1010,8 53 0 0,3
08.12.2018 13:00:00 7,5 5,6 7,4 7,4 7,8 9,4 23 12 44 24 SSW 1011,1 28 0 0,1
08.12.2018 12:00:00 7,5 4,7 7,3 6,9 7,9 9,4 26 14 46 25 SSW 1010,9 57 4 0,0
08.12.2018 11:00:00 6,9 4,7 6,1 6,7 7,9 9,4 29 16 46 25 SSW 1011,4 15 0 0,1
08.12.2018 10:00:00 7,1 3,8 6,4 6,5 8,0 9,4 25 14 43 23 SSW 1011,8 45 0 0,0
08.12.2018 09:00:00 7,5 3,0 6,8 6,5 8,0 9,4 24 13 42 23 SSW 1012,0 48 0 0,0
08.12.2018 08:00:00 7,4 3,2 6,7 6,6 8,1 9,4 20 11 38 20 SSW 1012,3 38 0 0,0
08.12.2018 07:00:00 7,6 2,9 6,9 6,6 8,2 9,4 18 10 37 20 SSW 1012,6 57 0 0,0
08.12.2018 06:00:00 7,5 3,2 6,7 6,6 8,2 9,4 16 9 32 18 SSW 1012,4 63 0 0,0
08.12.2018 05:00:00 7,7 2,9 6,9 6,7 8,3 9,4 18 10 37 20 SW 1012,5 61 0 0,0
08.12.2018 04:00:00 7,9 2,9 7,1 6,8 8,4 9,4 16 9 39 21 SW 1012,3 59 0 0,0
08.12.2018 03:00:00 8,1 2,5 7,1 6,8 8,5 9,4 19 10 38 20 SW 1012,1 54 0 0,0
08.12.2018 02:00:00 7,8 3,3 6,4 7,1 8,6 9,4 23 12 46 25 WSW 1011,9 67 0 0,0
08.12.2018 01:00:00 7,8 3,2 6,5 7,4 8,7 9,4 23 13 45 24 WSW 1011,2 70 0 0,0
08.12.2018 00:00:00 8,8 3,7 7,4 7,8 8,8 9,4 22 12 44 24 W 1010,4 55 0 0,0
07.12.2018 23:00:00 9,3 4,4 8,4 8,2 8,8 9,4 22 12 49 26 WSW 1009,2 63 0 0,0
07.12.2018 22:00:00 10,0 4,0 8,7 8,6 8,9 9,4 27 15 49 26 W 1007,5 70 0 0,0
07.12.2018 21:00:00 11,1 6,6 10,1 8,9 8,9 9,4 25 13 47 26 SW 1005,5 70 0 0,0
07.12.2018 20:00:00 10,4 7,8 9,6 8,9 8,9 9,4 29 16 50 27 SSW 1004,5 43 0 0,0
07.12.2018 19:00:00 11,7 5,8 10,6 8,9 9,0 9,4 29 16 45 25 SSW 1005,2 70 0 0,0
07.12.2018 18:00:00 11,7 5,6 9,8 9,1 9,0 9,4 24 13 41 22 SSW 1006,1 43 0 0,0
07.12.2018 17:00:00 12,0 5,8 10,8 9,4 9,0 9,4 22 12 53 28 SW 1007,9 70 0 0,0
07.12.2018 16:00:00 11,9 6,7 10,6 9,8 8,9 9,4 26 14 49 26 SSW 1008,1 70 1 0,0
07.12.2018 15:00:00 12,2 7,2 11,6 9,8 8,9 9,4 24 13 44 24 SSW 1009,0 70 0 0,0
07.12.2018 14:00:00 11,8 8,3 11,0 9,8 8,9 9,4 23 12 36 19 S 1010,8 70 0 0,0
07.12.2018 13:00:00 12,2 7,9 11,5 9,9 8,8 9,4 20 11 39 21 SSW 1012,2 70 0 0,0
07.12.2018 12:00:00 12,7 7,7 12,0 9,9 8,8 9,4 23 12 40 21 SW 1013,6 70 0 0,0
07.12.2018 11:00:00 12,5 7,9 11,8 9,8 8,7 9,4 23 12 40 22 SSW 1014,5 70 0 0,0
07.12.2018 10:00:00 11,8 9,2 11,3 9,6 8,7 9,4 21 11 33 18 S 1015,1 70 0 0,0

tt = temperature
td = dewpoint
tt 5cm = temperature 5cm
tt -5cm = temperature -5cm
tt -20cm = temperature -20cm
tt -100cm = temperature -100cm
ff = wind speed
fx = gusts
dd = wind direction
ppp = reduced air pressure
vv = visibility
sd = sunshine duration
rr = precipitation

Next stations